Weather History for KCDJ - April, 2014

Change the Weather History Date:

Monday, April 14, 2014

  Actual Average (KIRK) Record (KIRK)
Temperature  
Mean Temperature 38 °F 51 °F  
Max Temperature 43 °F 62 °F 86 °F (2006)
Min Temperature 30 °F 40 °F 22 °F (1928)
Degree Days  
Heating Degree Days 27 14  
Month to date heating degree days 223  
Since 1 July heating degree days 5510  
Cooling Degree Days 0 0  
Month to date cooling degree days 0  
Year to date cooling degree days 0  
Moisture  
Dew Point 26 °F    
Average Humidity 67    
Maximum Humidity 89    
Minimum Humidity 38    
Precipitation  
Precipitation 0.06 in 0.13 in 1.78 in (1993)
Month to date precipitation 1.31  
Year to date precipitation 6.66  
Sea Level Pressure  
Sea Level Pressure 30.04 in    
Wind  
Wind Speed 12 mph (NNW)    
Max Wind Speed 17 mph    
Max Gust Speed 33 mph    
T = Trace of Precipitation, MM = Missing Value Source: NWS Daily Summary

Daily Weather History Graph

Daily Weather History Graph

Search for Another Location

Airport or City:

Trip Planner

Search our weather history database for the weather conditions in past years. The results will help you decide how hot, cold, wet, or windy it might be!

Date:

Astronomy

Apr. 14, 2014 Rise Set
Actual Time 6:38 AM CDT 7:51 PM CDT
Civil Twilight 6:10 AM CDT 8:19 PM CDT
Nautical Twilight 5:36 AM CDT 8:53 PM CDT
Astronomical Twilight 5:02 AM CDT 9:28 PM CDT
Moon 7:31 PM CDT (4/14) 6:10 AM CDT (4/14)
Length of Visible Light 14h 09m
Length of Day
13h 13m
Full, 100% of the Moon is Illuminated
Apr 14
Full
Apr 15
Full
Apr 22
Last Quarter
Apr 29
New
May 6
First Quarter

Hourly Weather History & Observations

Time (CDT) Temp. Windchill Dew Point Humidity Pressure Visibility Wind Dir Wind Speed Gust Speed Precip Events Conditions
12:52 AM 41.0 °F 33.9 °F 37.0 °F 86% 29.74 in - NNW 12.7 mph 23.0 mph 0.03 in   Unknown
1:52 AM 39.0 °F 29.9 °F 34.0 °F 82% 29.77 in - NNW 17.3 mph 33.4 mph 0.02 in   Unknown
2:52 AM 37.0 °F 28.5 °F 33.1 °F 86% 29.80 in - NW 13.8 mph 23.0 mph N/A   Unknown
3:52 AM 36.0 °F 27.1 °F 32.0 °F 86% 29.81 in - NNW 13.8 mph 18.4 mph N/A   Unknown
4:52 AM 35.1 °F 26.4 °F 30.9 °F 85% 29.85 in - NNW 12.7 mph 24.2 mph N/A   Unknown
5:52 AM 34.0 °F 25.0 °F 30.9 °F 89% 29.87 in - NW 12.7 mph 32.2 mph 0.01 in   Unknown
6:52 AM 35.1 °F 27.9 °F 30.0 °F 82% 29.96 in - NNW 9.2 mph 21.9 mph N/A   Unknown
7:52 AM 34.0 °F 25.5 °F 28.9 °F 82% 30.02 in - NNW 11.5 mph 17.3 mph N/A   Unknown
8:52 AM 34.0 °F 25.5 °F 28.0 °F 79% 30.04 in - NNW 11.5 mph 25.3 mph N/A   Unknown
9:52 AM 34.0 °F 24.6 °F 28.0 °F 79% 30.05 in - NNW 13.8 mph 25.3 mph N/A   Unknown
10:52 AM 35.1 °F 27.9 °F 27.0 °F 72% 30.08 in - NNW 9.2 mph 24.2 mph N/A   Unknown
11:52 AM 35.1 °F 26.9 °F 26.1 °F 70% 30.12 in - NNW 11.5 mph 23.0 mph N/A   Unknown
1:52 PM 37.9 °F 29.2 °F 25.0 °F 60% 30.12 in - NNW 15.0 mph 20.7 mph N/A   Unknown
2:52 PM 37.9 °F 30.0 °F 21.9 °F 53% 30.13 in - NNW 12.7 mph 23.0 mph N/A   Unknown
3:52 PM 41.0 °F 33.5 °F 23.0 °F 49% 30.13 in - NNW 13.8 mph 26.5 mph N/A   Unknown
4:52 PM 43.0 °F 36.8 °F 21.0 °F 42% 30.14 in - NW 11.5 mph 20.7 mph N/A   Unknown
5:52 PM 43.0 °F 37.7 °F 19.0 °F 38% 30.14 in - NNW 9.2 mph 20.7 mph N/A   Unknown
6:52 PM 42.1 °F 37.7 °F 19.9 °F 41% 30.15 in - NNW 6.9 mph 19.6 mph N/A   Unknown
7:52 PM 39.0 °F 32.3 °F 19.0 °F 45% 30.17 in - NNW 10.4 mph 17.3 mph N/A   Unknown
8:52 PM 37.0 °F 31.6 °F 21.0 °F 52% 30.19 in - NNW 6.9 mph - N/A   Unknown
9:52 PM 35.1 °F 31.0 °F 21.9 °F 59% 30.21 in - NW 4.6 mph - N/A   Unknown
10:52 PM 33.1 °F - 21.0 °F 61% 30.22 in - Calm Calm - N/A   Unknown
11:52 PM 30.0 °F - 21.9 °F 72% 30.22 in - Calm Calm - N/A   Unknown